Harlan, KY

4:51 PM EST on December 11, 2017 (GMT -0500)
Harlan

Weather History for KI35 - June, 2013

Change the Weather History Date:

Tuesday, June 25, 2013

  Actual Average (KLOZ) Record (KLOZ)
Temperature  
Mean Temperature 73 °F -  
Max Temperature 80 °F 84 °F 98 °F (1988)
Min Temperature 66 °F 61 °F 47 °F (1974)
Cooling Degree Days 8    
Growing Degree Days 23 (Base 50)    
Moisture  
Dew Point 67 °F    
Average Humidity 84    
Maximum Humidity 100    
Minimum Humidity 61    
Precipitation  
Precipitation 0.00 in - - ()
Sea Level Pressure  
Sea Level Pressure 30.14 in    
Wind  
Wind Speed 1 mph (NW)    
Max Wind Speed 9 mph    
Max Gust Speed -    
Visibility 7 miles    
Events      
Averages and records for this station are not official NWS values.
T = Trace of Precipitation, MM = Missing Value Source: NWS Daily Summary

Daily Weather History Graph

Daily Weather History Graph

Search for Another Location

Airport or City:

Trip Planner

Search our weather history database for the weather conditions in past years. The results will help you decide how hot, cold, wet, or windy it might be!

Date:

Astronomy

Jun. 25, 2013 Rise Set
Actual Time 6:15 AM EDT 8:56 PM EDT
Civil Twilight 5:44 AM EDT 9:27 PM EDT
Nautical Twilight 5:06 AM EDT 10:05 PM EDT
Astronomical Twilight 4:23 AM EDT 10:48 PM EDT
Moon 10:46 PM EDT (6/25) 8:50 AM EDT (6/25)
Length of Visible Light 15h 42m
Length of Day
14h 40m
Waning Gibbous, 93% of the Moon is Illuminated
Jun 25
Waning Gibbous
Jun 30
Last Quarter
Jul 8
New
Jul 15
First Quarter
Jul 22
Full

Hourly Weather History & Observations

Time (EDT) Temp. Heat Index Dew Point Humidity Pressure Visibility Wind Dir Wind Speed Gust Speed Precip Events Conditions
12:15 AM 68.0 °F - 66.2 °F 94% 30.18 in 7.0 mi North - - N/A   Scattered Clouds
12:35 AM 68.0 °F - 66.2 °F 94% 30.18 in 5.0 mi Calm Calm - N/A   Scattered Clouds
12:55 AM 68.0 °F - 64.4 °F 88% 30.18 in 5.0 mi Calm Calm - N/A   Clear
1:15 AM 68.0 °F - 66.2 °F 94% 30.17 in 4.0 mi Calm Calm - N/A   Scattered Clouds
1:35 AM 68.0 °F - 66.2 °F 94% 30.17 in 3.0 mi Calm Calm - N/A   Scattered Clouds
1:55 AM 68.0 °F - 64.4 °F 88% 30.16 in 1.0 mi Calm Calm - N/A   Overcast
2:15 AM 68.0 °F - 64.4 °F 88% 30.16 in 1.8 mi Calm Calm - N/A   Overcast
2:35 AM 68.0 °F - 66.2 °F 94% 30.15 in 1.2 mi Calm Calm - N/A   Overcast
2:55 AM 68.0 °F - 64.4 °F 88% 30.15 in 2.0 mi Calm Calm - N/A   Mostly Cloudy
3:15 AM 68.0 °F - 66.2 °F 94% 30.14 in 0.8 mi Calm Calm - N/A   Overcast
3:35 AM 68.0 °F - 66.2 °F 94% 30.13 in 1.0 mi Calm Calm - N/A   Overcast
3:55 AM 68.0 °F - 64.4 °F 88% 30.14 in 1.2 mi NE 4.6 mph - N/A   Overcast
4:15 AM 68.0 °F - 64.4 °F 88% 30.15 in 0.8 mi Calm Calm - N/A   Overcast
4:35 AM 68.0 °F - 64.4 °F 88% 30.14 in 0.5 mi North 6.9 mph - N/A   Overcast
4:55 AM 68.0 °F - 64.4 °F 88% 30.14 in 0.8 mi Calm Calm - N/A   Overcast
5:15 AM 68.0 °F - 64.4 °F 88% 30.15 in 0.8 mi Calm Calm - N/A   Overcast
5:35 AM 68.0 °F - 64.4 °F 88% 30.14 in 0.8 mi Calm Calm - N/A   Overcast
5:55 AM 66.2 °F - 64.4 °F 94% 30.15 in 0.2 mi Calm Calm - N/A   Overcast
6:15 AM 66.2 °F - 64.4 °F 94% 30.16 in 0.8 mi Calm Calm - N/A   Overcast
6:35 AM 66.2 °F - 64.4 °F 94% 30.16 in 0.5 mi Calm Calm - N/A   Overcast
6:55 AM 66.2 °F - 64.4 °F 94% 30.17 in 1.8 mi Calm Calm - N/A   Overcast
7:15 AM 66.2 °F - 64.4 °F 94% 30.17 in 2.5 mi Calm Calm - N/A   Overcast
7:35 AM 66.2 °F - 64.4 °F 94% 30.17 in 2.0 mi North 4.6 mph - N/A   Overcast
7:55 AM 68.0 °F - 64.4 °F 88% 30.18 in 3.0 mi Calm Calm - N/A   Overcast
8:15 AM 68.0 °F - 66.2 °F 94% 30.18 in 4.0 mi Calm Calm - N/A   Overcast
8:35 AM 68.0 °F - 66.2 °F 94% 30.18 in 7.0 mi North 3.5 mph - N/A   Overcast
8:55 AM 69.8 °F - 66.2 °F 88% 30.19 in 10.0 mi Calm Calm - N/A   Overcast
9:15 AM 71.6 °F - 68.0 °F 88% 30.19 in 10.0 mi Calm Calm - N/A   Overcast
9:35 AM 71.6 °F - 68.0 °F 88% 30.19 in 10.0 mi Calm Calm - N/A   Overcast
9:55 AM 71.6 °F - 68.0 °F 88% 30.19 in 10.0 mi NW 3.5 mph - N/A   Overcast
10:15 AM 71.6 °F - 66.2 °F 83% 30.19 in 10.0 mi North - - N/A   Overcast
10:35 AM 71.6 °F - 68.0 °F 88% 30.19 in 10.0 mi North - - N/A   Overcast
10:55 AM 73.4 °F - 68.0 °F 83% 30.19 in 10.0 mi North 5.8 mph - N/A   Overcast
11:15 AM 73.4 °F - 68.0 °F 83% 30.18 in 10.0 mi Calm Calm - N/A   Overcast
11:35 AM 77.0 °F - 68.0 °F 74% 30.18 in 10.0 mi Calm Calm - N/A   Overcast
11:55 AM 73.4 °F - 68.0 °F 83% 30.18 in 10.0 mi Calm Calm - N/A   Overcast
12:15 PM 75.2 °F - 68.0 °F 78% 30.18 in 10.0 mi Calm Calm - N/A   Overcast
12:35 PM 75.2 °F - 68.0 °F 78% 30.18 in 10.0 mi West 3.5 mph - N/A   Overcast
12:55 PM 73.4 °F - 69.8 °F 88% 30.18 in 7.0 mi West 4.6 mph - N/A   Overcast
1:15 PM 75.2 °F - 69.8 °F 83% 30.16 in 10.0 mi Calm Calm - N/A   Mostly Cloudy
1:35 PM 78.8 °F - 69.8 °F 74% 30.16 in 10.0 mi Calm Calm - N/A   Scattered Clouds
1:55 PM 78.8 °F - 68.0 °F 69% 30.15 in 10.0 mi Calm Calm - N/A   Mostly Cloudy
2:15 PM 80.6 °F 83.2 °F 68.0 °F 65% 30.15 in 10.0 mi SW 4.6 mph - N/A   Scattered Clouds
2:35 PM 78.8 °F - 68.0 °F 69% 30.14 in 10.0 mi West 4.6 mph - N/A   Scattered Clouds
2:55 PM 78.8 °F - 69.8 °F 74% 30.14 in 10.0 mi Calm Calm - N/A   Scattered Clouds
3:15 PM 78.8 °F - 69.8 °F 74% 30.14 in 10.0 mi West 4.6 mph - N/A   Scattered Clouds
3:35 PM 78.8 °F - 69.8 °F 74% 30.12 in 10.0 mi West 5.8 mph - N/A   Clear
3:55 PM 77.0 °F - 68.0 °F 74% 30.12 in 10.0 mi North - - N/A   Clear
4:15 PM 77.0 °F - 68.0 °F 74% 30.13 in 10.0 mi WSW 4.6 mph - N/A   Clear
4:35 PM 77.0 °F - 68.0 °F 74% 30.11 in 10.0 mi Calm Calm - N/A   Scattered Clouds
4:55 PM 77.0 °F - 68.0 °F 74% 30.11 in 10.0 mi WSW 3.5 mph - N/A   Clear
5:15 PM 77.0 °F - 68.0 °F 74% 30.11 in 10.0 mi West 3.5 mph - N/A   Clear
5:35 PM 77.0 °F - 68.0 °F 74% 30.10 in 10.0 mi Calm Calm - N/A   Clear
5:55 PM 77.0 °F - 68.0 °F 74% 30.08 in 10.0 mi Calm Calm - N/A   Clear
6:15 PM 78.8 °F - 64.4 °F 61% 30.07 in 10.0 mi Calm Calm - N/A   Clear
6:35 PM 78.8 °F - 66.2 °F 65% 30.06 in 10.0 mi Calm Calm - N/A   Clear
6:55 PM 78.8 °F - 68.0 °F 69% 30.06 in 10.0 mi Calm Calm - N/A   Clear
7:15 PM 78.8 °F - 66.2 °F 65% 30.06 in 10.0 mi Calm Calm - N/A   Clear
7:35 PM 78.8 °F - 68.0 °F 69% 30.06 in 10.0 mi Calm Calm - N/A   Clear
7:55 PM 77.0 °F - 68.0 °F 74% 30.06 in 10.0 mi Calm Calm - N/A   Clear
8:15 PM 77.0 °F - 68.0 °F 74% 30.06 in 10.0 mi Calm Calm - N/A   Clear
8:35 PM 75.2 °F - 68.0 °F 78% 30.06 in 10.0 mi Calm Calm - N/A   Clear
8:55 PM 73.4 °F - 68.0 °F 83% 30.07 in 10.0 mi Calm Calm - N/A   Clear
9:15 PM 71.6 °F - 68.0 °F 88% 30.08 in 10.0 mi East 9.2 mph - N/A   Clear
9:35 PM 71.6 °F - 68.0 °F 88% 30.08 in 10.0 mi ENE 3.5 mph - N/A   Clear
9:55 PM 73.4 °F - 68.0 °F 83% 30.09 in 10.0 mi Calm Calm - N/A   Clear
10:15 PM 71.6 °F - 68.0 °F 88% 30.10 in 10.0 mi NE 5.8 mph - N/A   Clear
10:35 PM 71.6 °F - 68.0 °F 88% 30.09 in 10.0 mi Calm Calm - N/A   Clear
10:55 PM 69.8 °F - 68.0 °F 94% 30.09 in 10.0 mi NNE 9.2 mph - N/A   Clear
11:15 PM 69.8 °F - 68.0 °F 94% 30.09 in 7.0 mi North - - N/A   Clear
11:35 PM 69.8 °F - 68.0 °F 94% 30.08 in 10.0 mi North - - N/A   Clear
11:55 PM 68.0 °F - 68.0 °F 100% 30.07 in 5.0 mi North - - N/A   Scattered Clouds